[keps] orb12229.2l.amsat
Ray Hoad
ray.hoad at mypbmail.com
Thu Aug 16 20:16:41 PDT 2012
SB KEPS @ AMSAT $ORB12229.N
2Line Orbital Elements 12229.AMSAT
HR AMSAT ORBITAL ELEMENTS FOR AMATEUR SATELLITES IN NASA FORMAT
FROM WA5QGD FORT WORTH,TX August 16, 2012
Send SUBSCRIBE KEPS/UNSUBSCRIBE KEPS to majordomo at amsat.org only
BID: ORB12229.N
DECODE 2-LINE ELSETS WITH THE FOLLOWING KEY:
1 AAAAAU 00 0 0 BBBBB.BBBBBBBB .CCCCCCCC 00000-0 00000-0 0 DDDZ
2 AAAAA EEE.EEEE FFF.FFFF GGGGGGG HHH.HHHH III.IIII JJ.JJJJJJJJKKKKKZ
KEY: A-CATALOGNUM B-EPOCHTIME C-DECAY D-ELSETNUM E-INCLINATION F-RAAN
G-ECCENTRICITY H-ARGPERIGEE I-MNANOM J-MNMOTION K-ORBITNUM Z-CHECKSUM
TO ALL RADIO AMATEURS BT
AO-07
1 07530U 74089B 12229.63791937 -.00000027 00000-0 10000-3 0 4577
2 07530 101.4077 224.5250 0011696 162.6981 197.4486 12.53590678727622
FO-29
1 24278U 96046B 12228.86218974 -.00000049 00000-0 -11511-4 0 9143
2 24278 098.5871 321.7164 0349762 234.7890 122.0040 13.52986448790028
SO-33
1 25509U 98061B 12229.70739051 .00000187 00000-0 26398-4 0 3007
2 25509 031.4362 351.1857 0352103 012.7921 348.1374 14.28799940721315
RS-22
1 27939U 03042A 12229.75503866 .00000333 00000-0 71843-4 0 6370
2 27939 097.8091 067.4558 0014624 074.1921 286.0895 14.64095800474743
VO-52
1 28650U 05017B 12228.63127798 .00000469 00000-0 63486-4 0 1815
2 28650 097.5946 256.6730 0025676 203.5497 156.4553 14.83099362393782
HO-68
1 36122U 09072B 12229.71730422 -.00000044 00000-0 00000 0 0 7440
2 36122 100.3565 287.8298 0007402 333.6144 026.4589 13.16297423128358
UO-11
1 14781U 84021B 12228.93460168 .00000380 00000-0 56499-4 0 09615
2 14781 097.9497 287.9179 0008551 191.8473 168.2540 14.80521552528771
AO-16
1 20439U 90005D 12229.80384363 .00000088 00000-0 48523-4 0 5351
2 20439 098.4339 171.4912 0010971 345.0089 015.0772 14.32074242178678
LO-19
1 20442U 90005G 12228.90950712 .00000110 00000-0 56323-4 0 04769
2 20442 098.3982 173.4181 0011419 339.4832 020.5899 14.32291115178734
AO-27
1 22825U 93061C 12228.81243222 .00000076 00000-0 46804-4 0 1730
2 22825 098.5740 170.7095 0009500 104.2784 255.9492 14.29477479984992
IO-26
1 22826U 93061D 12228.87184984 .00000099 00000-0 55326-4 0 09390
2 22826 098.5722 171.1225 0009842 096.9173 263.3127 14.29752633985134
GO-32
1 25397U 98043D 12229.50428062 -.00000077 00000-0 -15800-4 0 8503
2 25397 098.3663 205.2626 0002315 101.8354 258.3072 14.23286755732607
NO-44
1 26931U 01043C 12228.77844453 .00000201 00000-0 11034-3 0 01151
2 26931 067.0543 326.7529 0007052 255.5951 104.4358 14.29821238567764
SO-50
1 27607U 02058C 12229.68527085 .00000248 00000-0 58832-4 0 8391
2 27607 064.5578 110.8570 0079435 236.5501 122.7991 14.72461920518877
CO-55
1 27844U 03031E 12228.55949576 .00000200 00000-0 11203-3 0 04411
2 27844 098.7036 236.0782 0010645 053.3830 306.8323 14.21055967473320
CO-57
1 27848U 03031J 12228.50317787 .00000145 00000-0 87519-4 0 03920
2 27848 098.7116 235.3826 0010646 059.3335 300.8882 14.20803336473257
AO-51
1 28375U 04025K 12229.90812125 .00000121 00000-0 49137-4 0 3424
2 28375 098.1535 192.3795 0082554 217.0022 142.5463 14.40975432427515
CP3
1 31129U 07012N 12228.50697715 .00000497 00000-0 12307-3 0 2383
2 31129 097.8829 232.7974 0099742 299.1409 059.9832 14.53167011282591
CO-65
1 32785U 08021C 12228.68528809 .00001116 00000-0 14317-3 0 03911
2 32785 097.7966 288.3187 0013635 224.5922 135.4158 14.83113596232580
PRISM
1 33493U 09002B 12229.67360426 .00002300 00000-0 28117-3 0 9800
2 33493 098.1785 011.7140 0019946 100.3567 259.9884 14.84163122192725
SOHLA-1
1 33496U 09002E 12229.88951015 .00000304 00000-0 58979-4 0 8076
2 33496 098.1073 341.2409 0006004 199.6605 160.4369 14.70017280191161
SO-67
1 35870U 09049F 12229.72481044 .00003318 00000-0 13875-3 0 2390
2 35870 097.2291 263.3465 0001830 010.9643 126.5072 15.24261208161832
TISAT-1
1 36799U 10035E 12229.76677438 .00001292 00000-0 16894-3 0 2568
2 36799 098.0593 306.5401 0014434 341.8627 018.2053 14.82138420113463
STUDSAT
1 36801U 10035G 12229.73242301 .00003949 00000-0 47096-3 0 4501
2 36801 098.0689 307.5024 0012297 326.3353 033.7079 14.84819199113500
FO-69
1 37227U 0 12179.46825757 .00000166 00000-0 31335-4 0 02192
2 37227 071.9703 289.2712 0018108 298.3339 061.6016 14.77092260037611
FO-70
1 37380U 0 12179.47554455 .00000208 00000-0 37493-4 0 02230
2 37380 071.9743 289.8278 0018623 295.0880 064.8372 14.76843679037500
ALMASAT-1
1 38078U 12006B 12229.48331374 .00012943 00000-0 36125-3 0 4808
2 38078 069.4870 180.5009 0750220 173.3432 187.8359 14.11048841 26050
XATCOBEO
1 38082U 12006F 12229.62974209 .00031972 00000-0 77035-3 0 4773
2 38082 069.4864 176.5690 0719053 171.2363 190.2146 14.20533102 26161
NOAA-10
1 16969U 86073A 12228.87639980 .00000091 00000-0 54365-4 0 00303
2 16969 098.5787 256.8605 0013073 061.8188 298.4287 14.27569766348384
NOAA-11
1 19531U 88089A 12228.75525763 -.00000139 00000-0 -49324-4 0 00236
2 19531 098.7307 312.6573 0011940 056.2276 304.0037 14.14975931232935
NOAA-12
1 21263U 91032A 12228.98984261 .00000041 00000-0 36012-4 0 05257
2 21263 098.7266 250.3684 0014641 030.0392 330.1628 14.25512101105073
MET-3/5
1 21655U 91056A 12229.46752842 .00000455 00000-0 11490-2 0 4811
2 21655 082.5553 109.6108 0013704 167.3377 192.8092 13.17035748 9822
MET-2/21
1 22782U 93055A 12229.46404402 .00000107 00000-0 83723-4 0 5017
2 22782 082.5504 344.6832 0022288 347.7647 012.2978 13.83688192957501
OKEAN-4
1 23317U 94066A 12229.78966240 .00000663 00000-0 76607-4 0 9725
2 23317 082.5433 334.5419 0022192 147.6254 212.6329 14.83896574963791
NOAA-14
1 23455U 94089A 12228.91531147 .00000035 00000-0 41546-4 0 00066
2 23455 098.8256 311.6589 0009823 141.4792 218.7079 14.13866378909236
NOAA-15
1 25338U 98030A 12228.80590692 .00000022 00000-0 28193-4 0 03664
2 25338 098.6950 215.1679 0009727 298.6808 061.3389 14.25105829741343
RESURS
1 25394U 98043A 12228.97414276 .00000009 00000-0 21638-4 0 01627
2 25394 098.3255 214.0788 0002425 066.4034 293.7395 14.24292186732912
FENGYUN1
1 25730U 99025A 12228.90744924 .00000703 00000-0 42499-3 0 06848
2 25730 098.8489 186.8641 0017638 188.7281 171.3562 14.09707748683020
OKEAN-0
1 25860U 99039A 12228.92057849 .00000420 00000-0 71050-4 0 07261
2 25860 097.9412 190.3626 0001882 065.0638 295.0765 14.74267268703370
NOAA-16
1 26536U 00055A 12228.81157771 .00000314 00000-0 19399-3 0 08557
2 26536 099.0902 271.8427 0009771 276.1527 083.8506 14.12770343613459
NOAA-17
1 27453U 02032A 12228.79880289 .00000204 00000-0 10581-3 0 08032
2 27453 098.3336 252.8181 0011440 347.0960 012.9919 14.24470777527245
NOAA-18
1 28654U 05018A 12228.95683794 .00000219 00000-0 14519-3 0 02858
2 28654 099.0505 187.5590 0014362 350.6076 009.4863 14.11685275372993
NOAA-19
1 33591U 09005A 12228.90724308 .00000092 00000-0 74910-4 0 04747
2 33591 098.8653 167.9638 0013429 209.8773 150.1680 14.11371043181430
HUBBLE
1 20580U 90037B 12229.89786683 .00001341 00000-0 85663-4 0 548
2 20580 028.4702 106.1921 0003073 343.1305 016.9198 15.02693548 23879
ISS
1 25544U 98067A 12230.05386072 -.00009084 00000-0 -13346-3 0 1253
2 25544 051.6439 178.3849 0007000 326.9363 144.0762 15.53409523787484
CO-58
1 28895U 05043F 12229.63913599 .00000374 00000-0 85710-4 0 2526
2 28895 097.9075 093.2308 0017016 324.8760 035.1340 14.60706831362486
FALCON
1 30776U 07006E 12228.58682409 .00002846 00000-0 18417-3 0 4149
2 30776 035.4352 273.9293 0002324 210.4150 149.6432 15.07946308299222
MAST
1 31126U 07012K 12229.91063345 .00000352 00000-0 88983-4 0 5334
2 31126 097.8731 237.4621 0092464 281.7126 077.3712 14.54227122283096
CAPE1
1 31130U 07012P 12228.48209117 .00000446 00000-0 11182-3 0 05441
2 31130 097.8831 232.4680 0099987 299.8313 059.2951 14.53028116282383
COMPASS
1 32787U 08021E 12228.60243343 .00001590 00000-0 19605-3 0 03823
2 32787 097.7952 288.6149 0014451 222.9794 137.0330 14.84208941232629
AAUSAT2
1 32788U 08021F 12228.89584935 .00001418 00000-0 17409-3 0 03773
2 32788 097.7982 289.3180 0013922 220.7855 139.2242 14.84547777232698
DO-64
1 32789U 08021G 12228.81323293 .00003100 00000-0 35875-3 0 03939
2 32789 097.8084 291.4916 0013809 218.2268 141.7978 14.86182480232735
CO-66
1 32791U 08021J 12229.62782892 .00001025 00000-0 13056-3 0 3746
2 32791 097.7941 289.3093 0014897 218.0700 141.9421 14.83590844232704
RS-30
1 32953U 08025A 12229.57546516 .00000010 00000-0 00000 0 0 599
2 32953 082.4995 257.5869 0019044 171.8656 188.2735 12.43026715192068
PHARMSAT
1 35002U 09028B 12226.86484473 .07728342 73476-5 57159-3 0 789
2 35002 040.4341 050.6671 0012079 300.9773 059.0492 16.39309245183554
METEOR-M
1 35865U 09049A 12229.66733421 -.00000019 00000-0 11078-4 0 6895
2 35865 098.6496 282.8429 0001693 228.8447 131.2583 14.21867289151198
RS-38
1 35869U 09049E 12229.67944537 .00000006 00000-0 22161-4 0 6937
2 35869 098.6448 282.8404 0003824 233.4038 126.6785 14.22082234151213
JUGNU
1 37839U 11058B 12228.74158740 .00000620 00000-0 19019-3 0 2068
2 37839 019.9628 357.4379 0018681 156.6663 203.4538 14.12073213 43671
SRMSAT
1 37841U 11058D 12228.73566981 .00000264 00000-0 00000 0 0 2071
2 37841 019.9730 003.5186 0011803 123.4594 236.6949 14.10154209 43607
RAX-2
1 37853U 11061D 12228.87257347 .00003413 00000-0 27528-3 0 2589
2 37853 101.7093 296.2427 0246455 180.6933 179.3939 14.80382037 43225
AUBIESAT
1 37854U 11061E 12228.87890211 .00003979 00000-0 31359-3 0 2587
2 37854 101.7112 296.5808 0247676 179.8903 180.2388 14.80802906 43228
HRBE
1 37855U 11061F 12228.89871724 .00004165 00000-0 32904-3 0 02561
2 37855 101.7117 296.5454 0247862 179.9510 180.1766 14.80638699043228
RS-39
1 38051U 11062C 12229.81045976 .00007319 00000-0 29990-3 0 6149
2 38051 051.6387 230.7611 0012821 256.0322 161.6952 15.25230577 31228
E-STAR
1 38079U 12006C 12229.81948136 .00026333 00000-0 64017-3 0 4322
2 38079 069.4856 176.7353 0728348 171.3899 190.0518 14.18402841 26172
GOLIAT
1 38085U 12006J 12228.86611142 .00027781 00000-0 67117-3 0 3968
2 38085 069.4880 179.4058 0734004 172.9117 188.3114 14.17316840 26022
HORYU-2
1 38340U 12025D 12229.81397341 .00000786 00000-0 13903-3 0 957
2 38340 098.1753 169.6900 0013737 133.9257 226.3119 14.70095138 13382
RS-40
1 38736U 12041D 12228.48369154 .00000010 00000-0 00000-0 0 00251
2 38736 082.4807 345.7228 0017664 275.1527 084.7535 12.42645912002271
/EX
More information about the Keps
mailing list